www.pogodaiklimat.ru

Погода и климат >> Архив погоды >> Россия >> Ненецкий АО >> Имени Федорова


ПОГОДА в Имени Федорова

  • Прогноз погоды в Имени Федорова
  • Монитор погоды в Имени Федорова
  • Климат города

АРХИВ ПОГОДЫ в Имени Федорова

Время (UTC), дата Ветер
(напр.,м/с)
 
Видим.   Явления Облачность Т
(С)
Тd
(С)
f
(%)
Тe
(С)
Тes
(С)
Комфортность P
(гПа)
Po
(гПа)
Тmin
(С)
Tmax
(С)
R
(мм)
S
(см)
12 19.03 Ю 11-13
{15}
10 км сильный позёмок {метель} 10/0
[Ac und]
-0.9 -2.1 92 -10 -10 1003.9 1002.6
15 19.03 ЮЗ 12-14
{15}
2000 м слабый ливневой снег {метель} 10/10 570 м
[Cb cap]
-0.2 -0.8 96 -9 -9 1004.3 1003.0 0.0 0.3
18 19.03 ЮЗ 14-16
{16}
2000 м слабый ливневой снег {метель} 10/10 400 м
[Cb cap]
-0.2 -1.4 92 -10 -10 1004.5 1003.2
21 19.03 ЮЗ 13-15
{17}
2000 м слабый ливневой снег {метель} 10/10 600 м
[Cb cap]
-0.3 -0.8 96 -10 -10 1004.6 1003.2
00 20.03 ЮЗ 12-14
{15}
10 км сильный позёмок {ливн. осадки, метель} 10/10 500 м
[Sc]
-0.2 -2.4 85 -9 -9 1005.0 1003.6
03 20.03 ЮЗ 12-14
{17}
10 км сильный позёмок {метель} 10/10 450 м
[Sc]
-0.5 -1.2 95 -10 -10 1006.1 1004.8 -0.6 0.6 4
06 20.03 ЮЗ 11-12
{14}
10 км сильный позёмок {метель} 10/10 480 м
[Sc]
-0.5 -1.9 90 -9 -9 1006.5 1005.2
09 20.03 ЮЗ 11-12
{13}
2000 м слабый ливневой снег {метель} 10/10 300 м
[Cb cap]
-0.5 -1.0 96 -9 -9 1006.6 1005.3
12 20.03 З 7
{12}
20 км {ливн. осадки, метель} 9/8 870 м
[Sc Ci fib]
-1.1 -2.1 93 -9 -9 1008.1 1006.8
15 20.03 ЮЗ 7 20 км ясно -5.6 -6.8 91 -14 -14 1010.5 1009.1 -0.3 0.3
18 20.03 ЮЗ 8 10 км 1/0
[Ac trans]
-8.1 -9.5 90 -18 -18 1012.2 1010.8
21 20.03 ЮЗ 8
{10}
10 км 3/0
[Ac trans]
-6.1 -7.8 88 -15 -15 1013.4 1012.0
00 21.03 Ю 8
{10}
10 км ясно -8.6 -10.6 85 -18 -18 1014.1 1012.7
03 21.03 ЮЗ 7 500 м туман ?/? -6.5 -7.7 91 -15 -15 1015.1 1013.7 -9.3 4
06 21.03 Ю 6 10 км {туман} 10/10 270 м
[St]
-2.6 -3.7 92 -10 -10 1014.9 1013.6
09 21.03 Ю 6 1000 м дымка 10/10 210 м
[St]
-1.8 -2.2 97 -9 -9 1014.9 1013.5
12 21.03 Ю 7
{10}
10 км 10/10 360 м
[Sc]
-1.2 -1.6 97 -9 -9 1014.0 1012.6
15 21.03 ЮВ 3
{10}
10 км 10/10 450 м
[Sc]
-2.4 -4.4 86 -8 -8 1013.0 1011.6 -1.2
18 21.03 ЮВ 3 2000 м снег 10/10 270 м
[Frnb Ns]
-2.9 -3.4 96 -8 -8 1011.0 1009.6
21 21.03 З 5 4000 м слабый снег {метель} 10/10 270 м
[Frnb Ns]
-3.2 -4.5 91 -10 -10 1010.9 1009.5
00 22.03 ЮЗ 6 10 км позёмок {снег, метель} 10/10 450 м
[Sc]
-3.2 -3.6 97 -11 -11 1011.0 1009.6
06 22.03 ЮЗ 5
{10}
20 км {метель} 8/0
[Ac trans]
-4.4 -6.3 87 -11 -11 1010.6 1009.3
09 22.03 Ю 7 500 м туман ?/? -2.1 -3.1 93 -10 -10 1010.3 1008.9
12 22.03 Ю 6 10 км {туман} 10/10 270 м
[St]
-1.9 -2.2 98 -9 -9 1010.4 1009.0
15 22.03 Ю 8
{10}
500 м туман ?/? -3.4 -4.4 93 -12 -12 1009.7 1008.7 -1.3
18 22.03 Ю 9-11
{11}
1000 м позёмок {туман, метель} [диам. гололёда 2 мм] 8/0
[Ac trans]
-5.4 -6.0 96 -15 -15 1009.2 1007.8
21 22.03 Ю 8
{11}
1000 м позёмок {метель} 9/0
[Ac trans]
-5.1 -5.7 96 -14 -14 1008.9 1007.5
15 23.03 ЮВ 3 10 км 10/10 330 м
[Sc]
-0.7 -1.0 98 -6 -6 997.1 995.8 +0.2 1
18 23.03 ЮЗ 7 2000 м снег {метель} 10/10 270 м
[Frnb Ns]
-0.7 -1.0 98 -8 -8 996.3 995.0
21 23.03 ЮЗ 8
{11}
1000 м позёмок {снег, метель} 10/0
[Ac und]
-0.8 -1.1 98 -9 -9 996.9 995.6
00 24.03 ЮЗ 6
{12}
4000 м слабый снег {метель} 10/10 270 м
[Frnb Ns]
-1.5 -2.0 96 -9 -9 996.5 995.2
03 24.03 ЮЗ 6
{11}
10 км позёмок {снег, метель} 10/0
[Ac und]
-1.3 -2.4 92 -8 -8 996.1 994.8 -1.9 0.6 5
06 24.03 ЮЗ 7
{10}
20 км позёмок {снег, метель} 10/10 240 м
[St]
-1.6 -3.3 88 -9 -9 995.7 994.4 -2.5
09 24.03 ЮЗ 7
{10}
20 км {метель} 10/10 330 м
[Sc]
-0.9 -1.5 96 -8 -8 995.2 993.9
12 24.03 ЮЗ 6 20 км {метель} 10/10 450 м
[Sc]
-1.1 -1.6 96 -8 -8 995.3 994.0
15 24.03 ЮЗ 6 10 км 10/10 600 м
[Sc]
-1.4 -1.8 97 -9 -9 995.0 993.6 -0.9
18 24.03 Ю 7 4000 м слабый снег {метель} ясно -2.7 -3.2 96 -11 -11 994.1 992.8
21 24.03 ЮЗ 4 н/о н/о -2.9 -4.9 86 -9 -9 993.0 991.7
00 25.03 ЮЗ 5 н/о н/о -2.8 -4.8 86 -10 -10 992.9 991.6
03 25.03 ЮЗ 5 н/о н/о -2.8 -4.8 86 -10 -10 992.9 991.6
06 25.03 СЗ 4 20 км {снег} 10/10 360 м
[Sc]
-2.4 -4.5 85 -8 -8 994.7 993.4
09 25.03 СЗ 5 20 км 10/10 450 м
[Sc]
-2.7 -5.7 80 -9 -9 996.6 995.3
12 25.03 ЮЗ 6 20 км 8/3 300 м
[Sc Ac trans]
-4.6 -6.3 88 -12 -12 997.2 995.9
15 25.03 З 8 10 км 10/0
[Ac und]
-3.6 -5.3 88 -12 -12 996.4 995.0 -2.2
18 25.03 ЮЗ 6
{10}
4000 м слабый снег {метель} 10/0 240 м
[As op]
-2.7 -4.0 91 -10 -10 994.7 993.4
21 25.03 З 11-14
{16}
4000 м слабый снег {метель} 10/0 480 м
[As op]
-1.9 -2.7 94 -11 -11 991.5 990.2
00 26.03 СЗ 9-12
{14}
4000 м слабый снег {метель} 10/0 480 м
[As op]
-2.7 -5.0 84 -11 -11 994.5 993.2
03 26.03 З 6
{12}
20 км позёмок {снег, метель} 10/0
[As trans]
-4.1 -6.7 82 -12 -12 995.7 994.3 -4.9 1 5
06 26.03 ЮЗ 13-15
{17}
2000 м снег {метель} 10/0
[As trans]
-0.5 -1.0 96 -10 -10 993.1 991.8
09 26.03 ЮЗ 13-15
{16}
10 км сильный позёмок {снег, метель} 10/0
[Ac und]
-1.7 -2.6 94 -12 -12 992.4 991.1

 

Местоположение метеостанции Имени Федорова (Ненецкий АО, Россия): широта 70.45 долгота 59.08 высота над уровнем моря 12 м.

В архиве по умолчанию представлена погода в Имени Федорова за последнюю неделю. Архивные данные за месяц целиком и за предыдущие месяцы, начиная с января 2011 года, Вы можете получить, выбрав интересующий диапазон дат из раскрывающегося списка и нажав кнопку "Ввод!".

Внимание! Время в таблицах - всемирное. Для получения местного времени необходимо прибавить поправку, которая в Имени Федорова равна 3 ч.

Смотрите также архив погоды в соседних городах и на ближайших метеорологических станциях:

Погода на Мысе Белый Нос (Ненецкий АО, Россия) (104 км)
Погода в Амдерме (Ненецкий АО, Россия) (124 км)
Погода в Варандее (Ненецкий АО, Россия) (186 км)
Погода на Мысе Константиновском (Ненецкий АО, Россия) (253 км)
Погода в Усть-Каре (Ненецкий АО, Россия) (261 км)
Погода в Марресаля (Ямало-Ненецкий АО, Россия) (304 км)
Погода в Inari Angeli (Финляндия) (309 км)
Погода в Малых Кармакулах (Архангельская область, Россия) (310 км)
Погода в Хорей-Вере (Ненецкий АО, Россия) (339 км)
Погода в Сенгейском Шаре (Ненецкий АО, Россия) (376 км)

Пояснения к столбцам:

Ветер - указаны скорость ветра в м/с - средняя за 10 мин, порывы в срок и между сроками (в фигурных скобках) и направление, откуда дует ветер: С - северный, СВ - северо-восточный, В - восточный, ЮВ - юго-восточный, Ю - южный, ЮЗ - юго-западный, З - западный, СЗ - северо-западный.
Видимость - горизонтальная дальность видимости в метрах или километрах. При видимости от 1 до 10 км при отсутствии осадков обычно наблюдается дымка, при ухудшении видимости до 1 км и менее - туман. В сухую погоду видимость может ухудшаться дымом, пылью или мглою.
Явления - указаны атмосферные явления, наблюдавшиеся в срок или в последний час перед сроком; фигурными скобками обозначены явления, наблюдавшиеся между сроками (за 1-3 часа до срока); квадратными скобками обозначены град или гололедные отложения с указанием их диаметра в мм.
Облачность - указаны через наклонную черту общая и нижняя облачность в баллах и высота нижней границы облаков в метрах; квадратными скобками обозначены формы облаков: Ci - перистые, Cs - перисто-слоистые, Cc - перисто-кучевые, Ac - высококучевые, As - высокослоистые, Sc - слоисто-кучевые, Ns - слоисто-дождевые, Cu - кучевые, Cb - кучево-дождевые. Подробнее классификацию облаков см. в Атласе облаков (PDF).
T - Температура воздуха - температура, измеренная на высоте 2 м над землей.
Td - Температура точки росы - температура, при понижении до которой содержащийся в воздухе водяной пар достигнет насыщения.
f - Относительная влажность воздуха - влажноcть воздуха, измеренная на высоте 2 м над землей.
Te - Эффективная температура - температура, которую ощущает одетый по сезону человек в тени. Характеристика душности погоды. При расчете учитывается влияние влажности воздуха и скорости ветра на теплоощущения человека.
Tes - Эффективная температура на солнце - температура, которую ощущает человек, с поправкой на солнечный нагрев. Характеристика знойности погоды. Зависит от высоты солнца над горизонтом, облачности и скорости ветра. Ночью, в пасмурную погоду, а также при ветре 12 м/с и более поправка равна нулю.
P - Атмосферное давление - приведенное к уровню моря атмосферное давление.
Po - Атмосферное давление - измеренное на уровне метеостанции атмосферное давление.
Tmin - Минимальная температура - минимум температуры воздуха на высоте 2 м над землей.
Tmax - Максимальная температура - максимум температуры воздуха на высоте 2 м над землей.
R - Количество осадков - Количество выпавших осадков, мм. При наведении курсора мыши на число - период времени, за который выпало указанное количество осадков.
S - Снежный покров - Высота снежного покрова, см. При наведении курсора мыши на число - состояние снежного покрова и степень покрытия местности в баллах.